EW0159 Weather Reports


Display with metric or nautical units.
time (UTC)temp
F
wind
direction
speed
MPH
gust
MPH
rain 1hr
in
rain 24hr
in
rain mn
in
humidity
%
barometer
mb
20260507190008 60 97 1.0 7.0 0.00 0.00 0.00 65 1020.1
20260507184600 60 139 1.0 10.0 0.00 0.00 0.00 69 1020.3
20260507183058 60 189 3.0 7.0 0.00 0.00 0.00 67 1020.4
20260507181555 59 156 2.0 6.0 0.00 0.00 0.00 68 1020.5
20260507180051 58 107 1.0 3.0 0.00 0.00 0.00 69 1020.6
20260507174551 58 126 0.0 7.0 0.00 0.00 0.00 70 1020.7
20260507173120 57 175 2.0 5.0 0.00 0.00 0.00 71 1020.9
20260507171545 56 152 2.0 6.0 0.00 0.00 0.00 72 1021.0
20260507170044 56 198 2.0 5.0 0.00 0.00 0.00 73 1020.9
20260507164542 56 167 2.0 5.0 0.00 0.00 0.00 74 1020.9
20260507163040 54 227 3.0 5.0 0.00 0.00 0.00 75 1021.0
20260507161545 53 278 2.0 4.0 0.00 0.00 0.00 76 1021.0
20260507160038 53 218 1.0 4.0 0.00 0.00 0.00 75 1021.0
20260507154532 53 43 1.0 3.0 0.00 0.00 0.00 77 1021.0
20260507153033 52 188 0.0 2.0 0.00 0.00 0.00 77 1021.0
20260507151532 52 295 0.0 2.0 0.00 0.00 0.00 78 1021.1
20260507150037 51 295 0.0 2.0 0.00 0.00 0.00 80 1021.0
20260507144531 51 217 0.0 3.0 0.00 0.00 0.00 80 1021.0
20260507143030 50 217 0.0 3.0 0.00 0.00 0.00 81 1020.9
20260507141544 50 273 0.0 3.0 0.00 0.00 0.00 82 1020.9
20260507140027 50 229 0.0 3.0 0.00 0.00 0.00 82 1020.8
20260507134525 49 276 0.0 2.0 0.00 0.00 0.00 83 1020.7
20260507133033 49 276 0.0 2.0 0.00 0.00 0.00 83 1020.5
20260507131526 50 355 0.0 2.0 0.00 0.00 0.00 83 1020.6
20260507130021 50 355 0.0 1.0 0.00 0.00 0.00 82 1020.5
20260507124524 50 355 0.0 3.0 0.00 0.00 0.00 80 1020.5
20260507123026 50 342 0.0 2.0 0.00 0.00 0.00 80 1020.5
20260507121518 51 340 0.0 2.0 0.00 0.00 0.00 80 1020.6
20260507120015 51 344 0.0 3.0 0.00 0.00 0.00 79 1020.6
20260507114513 51 19 0.0 2.0 0.00 0.00 0.00 79 1020.8
20260507113013 51 21 0.0 1.0 0.00 0.00 0.00 81 1020.9
20260507111511 51 130 0.0 1.0 0.00 0.00 0.00 81 1020.8
20260507110009 51 130 0.0 1.0 0.00 0.00 0.00 82 1020.9
20260507104508 52 130 0.0 1.0 0.00 0.00 0.00 82 1021.0
20260507103006 52 142 0.0 1.0 0.00 0.00 0.00 81 1021.1
20260507101507 52 229 0.0 0.0 0.00 0.00 0.00 81 1021.2
20260507100003 52 229 0.0 0.0 0.00 0.00 0.00 81 1021.3
20260507094502 52 229 0.0 1.0 0.00 0.00 0.00 81 1021.3
20260507093001 52 229 0.0 0.0 0.00 0.00 0.00 82 1021.4
20260507091601 52 229 0.0 0.0 0.00 0.00 0.00 82 1021.5
20260507090105 52 229 0.0 0.0 0.00 0.00 0.00 81 1021.6
20260507084601 52 229 0.0 1.0 0.00 0.00 0.00 81 1021.5
20260507083057 52 230 0.0 0.0 0.00 0.00 0.00 82 1021.6
20260507081556 52 230 0.0 0.0 0.00 0.00 0.00 82 1021.6
20260507080054 52 230 0.0 1.0 0.00 0.00 0.00 82 1021.5
20260507074554 52 244 0.0 2.0 0.00 0.00 0.00 82 1021.5
20260507073102 52 319 0.0 0.0 0.00 0.00 0.00 82 1021.5
20260507071551 52 319 0.0 1.0 0.00 0.00 0.00 81 1021.4
20260507070056 53 319 0.0 1.0 0.00 0.00 0.00 81 1021.4
20260507064553 53 319 0.0 2.0 0.00 0.00 0.00 80 1021.4
20260507063046 53 319 0.0 3.0 0.00 0.00 0.00 80 1021.5
20260507061545 53 56 0.0 1.0 0.00 0.00 0.00 80 1021.4
20260507060048 53 57 0.0 5.0 0.00 0.00 0.00 80 1021.5
20260507054543 53 309 1.0 5.0 0.00 0.00 0.00 81 1021.5
20260507053043 53 259 0.0 4.0 0.00 0.00 0.00 81 1021.4
20260507051541 54 344 0.0 5.0 0.00 0.00 0.00 81 1021.4
20260507050038 54 307 0.0 2.0 0.00 0.00 0.00 81 1021.3
20260507044547 55 88 0.0 3.0 0.00 0.00 0.00 80 1021.2
20260507043034 56 338 0.0 1.0 0.00 0.00 0.00 79 1021.2
20260507041533 57 338 1.0 4.0 0.00 0.00 0.00 77 1021.1
20260507040040 57 110 0.0 3.0 0.00 0.00 0.00 76 1021.0
20260507034539 58 94 0.0 7.0 0.00 0.00 0.00 76 1020.9
20260507033043 59 19 0.0 4.0 0.00 0.00 0.00 75 1020.7
20260507031544 59 326 0.0 3.0 0.00 0.00 0.00 75 1020.4
20260507030032 60 5 1.0 7.0 0.00 0.00 0.00 75 1020.2
20260507024528 60 95 0.0 4.0 0.00 0.00 0.00 75 1020.0
20260507023028 61 330 0.0 2.0 0.00 0.00 0.00 75 1019.9
20260507021527 61 273 0.0 4.0 0.00 0.00 0.00 74 1019.8
20260507020027 62 336 3.0 6.0 0.00 0.00 0.00 73 1019.8
20260507014537 63 12 2.0 6.0 0.00 0.00 0.00 73 1019.9
20260507013034 63 348 1.0 8.0 0.00 0.00 0.00 74 1019.9
20260507011532 64 128 3.0 7.0 0.00 0.00 0.00 73 1019.9
20260507010031 63 346 2.0 8.0 0.00 0.00 0.00 74 1019.9
20260507004524 64 5 3.0 7.0 0.00 0.00 0.00 73 1019.8
20260507003024 65 21 2.0 5.0 0.00 0.00 0.00 73 1019.9
20260507001528 65 58 2.0 5.0 0.00 0.00 0.00 72 1019.7
20260507000023 65 57 3.0 7.0 0.00 0.00 0.00 74 1019.8
20260506234522 64 68 3.0 7.0 0.00 0.00 0.00 74 1019.8
20260506233022 64 31 1.0 5.0 0.00 0.00 0.00 75 1019.8
20260506231522 65 69 3.0 6.0 0.00 0.00 0.00 75 1019.9
20260506230022 66 25 2.0 5.0 0.00 0.00 0.00 73 1019.9
20260506224521 66 38 3.0 5.0 0.00 0.00 0.00 73 1020.0
20260506223020 66 65 3.0 8.0 0.00 0.00 0.00 73 1020.2
20260506221519 66 60 3.0 7.0 0.00 0.00 0.00 73 1020.2
20260506220018 67 223 2.0 4.0 0.00 0.00 0.00 72 1020.2
20260506214514 65 309 2.0 5.0 0.00 0.00 0.00 73 1020.2
20260506213014 64 15 1.0 6.0 0.00 0.00 0.00 75 1020.4
20260506211520 65 139 1.0 8.0 0.00 0.00 0.00 75 1020.3
20260506210016 65 32 4.0 9.0 0.00 0.00 0.00 75 1020.4
20260506204511 65 171 3.0 6.0 0.00 0.00 0.00 76 1020.5
20260506203011 65 89 1.0 3.0 0.00 0.00 0.00 75 1020.5
20260506201510 65 123 3.0 5.0 0.00 0.00 0.00 75 1020.4
20260506200007 65 50 1.0 6.0 0.00 0.00 0.00 76 1020.5
20260506194506 64 173 3.0 5.0 0.00 0.00 0.00 77 1020.5
20260506193003 63 67 0.0 4.0 0.00 0.00 0.00 76 1020.6
20260506191502 63 165 2.0 5.0 0.00 0.00 0.00 79 1020.8